Home   Weather   39°57'N, 76°43'W   Past weeks
Flag for USA

Past Weather in 39°57'N, 76°43'W, USA — Yesterday and Last 2 Weeks

Now
84 °F

Sunny.


Feels Like: 89 °F
Forecast: 96 / 74 °F
Wind: 3 mph from North

Location: Capital City Airport

Current Time: Jul 19, 2019 at 10:34:35 am

Latest Report: Jul 19, 2019 at 8:56 am


Visibility: 10 mi

Pressure: 29.93 "Hg

Humidity: 65%

Dew Point: 71 °F

Location of 39°57'N, 76°43'WLocation

Past Weather in 39°57'N, 76°43'W — Graph

°F

39°57'N, 76°43'W Temperature Yesterday

Maximum temperature yesterday: 93 °F (at 4:56 pm)
Minimum temperature yesterday: 77 °F (at 12:56 am)
Average temperature yesterday: 83 °F

High & Low Weather Summary for the Past Weeks

 TemperatureHumidityPressure
High95 °F (Jul 17, 1:56 pm)91% (Jul 6, 1:56 am)30.13 "Hg (Jul 6, 1:56 am)
Low65 °F (Jul 15, 5:56 am)36% (Jul 14, 6:56 pm)29.75 "Hg (Jul 11, 4:56 pm)
Average79 °F69%29.96 "Hg
* Reported Jul 4 8:56 am — Jul 19 8:56 am, 39°57'N, 76°43'W. Weather by CustomWeather, © 2019

Note: Actual official high and low records may vary slightly from our data, if they occured in-between our weather recording intervals... More about our weather records

Advertising

39°57'N, 76°43'W Weather History for the Previous 24 Hours

Scroll right to see more
 ConditionsComfort  
Time TempWeatherWind HumidityBarometerVisibility
8:56 am
Fri, Jul 19
84 °FSunny.3 mph65%29.93 "Hg10 mi
7:56 am80 °FSunny.3 mph71%29.93 "Hg10 mi
6:56 am76 °FSunny.3 mph82%29.92 "Hg10 mi
5:56 am75 °FSunny.3 mph85%29.91 "Hg10 mi
4:56 am75 °FClear.3 mph88%29.90 "Hg10 mi
3:56 am76 °FClear.3 mph85%29.91 "Hg10 mi
2:56 am76 °FClear.3 mph88%29.90 "Hg10 mi
1:56 am77 °FClear.5 mph85%29.89 "Hg10 mi
12:56 am78 °FClear.3 mph82%29.90 "Hg10 mi
11:56 pm
Thu, Jul 18
80 °FClear.No wind79%29.89 "Hg10 mi
10:56 pm81 °FPassing clouds.3 mph74%29.88 "Hg10 mi
9:56 pm85 °FOvercast.No wind65%29.86 "Hg10 mi
8:56 pm85 °FPassing clouds.3 mph68%29.85 "Hg10 mi
7:56 pm91 °FPartly sunny.No wind50%29.85 "Hg10 mi
6:56 pm93 °FPassing clouds.7 mph46%29.84 "Hg10 mi
5:56 pm93 °FScattered clouds.7 mph49%29.84 "Hg10 mi
4:56 pm93 °FSunny.7 mph49%29.84 "Hg10 mi
3:56 pm92 °FBroken clouds.6 mph52%29.85 "Hg10 mi
2:56 pm88 °FBroken clouds.5 mph59%29.87 "Hg10 mi
1:56 pm87 °FPartly sunny.No wind67%29.88 "Hg10 mi
12:56 pm81 °FLight rain. Overcast.No wind82%29.89 "Hg9 mi
12:22 pm82 °FRain. Cloudy.10 mph74%29.90 "Hg7 mi
11:56 am87 °FScattered clouds.3 mph65%29.88 "Hg10 mi
11:23 am85 °FBroken clouds.3 mph70%29.90 "Hg10 mi
10:56 am84 °FPartly sunny.3 mph70%29.89 "Hg10 mi
Weather by CustomWeather, © 2019

See weather overview